Weather History for Monroe, MI

Change the Weather History Date:

Tuesday, February 12, 2013

  Actual Average Record
Temperature  
Mean Temperature 32 °F -  
Max Temperature 35 °F 32 °F 61 °F (1932)
Min Temperature 30 °F 15 °F -11 °F (2014)
Degree Days  
Heating Degree Days 32    
Moisture  
Dew Point 26 °F    
Average Humidity 74    
Maximum Humidity 86    
Minimum Humidity 65    
Precipitation  
Precipitation 0.00 in - - ()
Sea Level Pressure  
Sea Level Pressure 29.96 in    
Wind  
Wind Speed 13 mph (West)    
Max Wind Speed 22 mph    
Max Gust Speed 29 mph    
Visibility 10 miles    
Events      
Averages and records for this station are not official NWS values.
T = Trace of Precipitation, MM = Missing Value Source: NWS Daily Summary

Daily Weather History Graph

Daily Weather History Graph

Search for Another Location

Airport:

Trip Planner

Search our weather history database for the weather conditions in past years. The results will help you decide how hot, cold, wet, or windy it might be!

Date:

Astronomy

Feb. 12, 2013 Rise Set
Actual Time 7:33 AM EST 6:03 PM EST
Civil Twilight 7:04 AM EST 6:32 PM EST
Nautical Twilight 6:31 AM EST 7:04 PM EST
Astronomical Twilight 5:59 AM EST 7:37 PM EST
Moon 8:26 AM EST (2/12) 9:06 PM EST (2/12)
Length of Visible Light 11h 27m
Length of Day
10h 30m
Waxing Crescent, 7% of the Moon is Illuminated
Feb 12
Waxing Crescent
Feb 17
First Quarter
Feb 25
Full
Mar 4
Last Quarter
Mar 11
New

Hourly Weather History & Observations

Time (EST) Temp. Windchill Dew Point Humidity Pressure Visibility Wind Dir Wind Speed Gust Speed Precip Events Conditions
12:34 AM 33.8 °F 21.9 °F 26.6 °F 75% 29.90 in 10.0 mi West 21.9 mph 28.8 mph N/A   Overcast
12:54 AM 33.8 °F 23.2 °F 24.8 °F 70% 29.90 in 10.0 mi West 17.3 mph 26.5 mph N/A   Overcast
1:14 AM 33.8 °F 24.3 °F 26.6 °F 75% 29.91 in 10.0 mi West 13.8 mph 24.2 mph N/A   Overcast
1:34 AM 33.8 °F 24.8 °F 26.6 °F 75% 29.91 in 10.0 mi West 12.7 mph 19.6 mph N/A   Overcast
2:32 AM 33.8 °F 23.2 °F 24.8 °F 70% 29.93 in 10.0 mi West 17.3 mph 21.9 mph N/A   Overcast
4:14 AM 33.8 °F 24.3 °F 26.6 °F 75% 29.96 in 10.0 mi West 13.8 mph - N/A   Overcast
4:34 AM 33.8 °F 23.9 °F 24.8 °F 70% 29.97 in 10.0 mi West 15.0 mph - N/A   Overcast
4:54 AM 33.8 °F 23.2 °F 24.8 °F 70% 29.96 in 10.0 mi West 17.3 mph - N/A   Overcast
5:15 AM 33.8 °F 23.9 °F 24.8 °F 70% 29.97 in 10.0 mi West 15.0 mph 20.7 mph N/A   Overcast
5:35 AM 33.8 °F 24.8 °F 24.8 °F 70% 29.98 in 10.0 mi West 12.7 mph - N/A   Overcast
6:15 AM 33.8 °F 22.5 °F 24.8 °F 70% 29.99 in 10.0 mi West 19.6 mph - N/A   Overcast
6:35 AM 33.8 °F 24.8 °F 24.8 °F 70% 30.00 in 10.0 mi West 12.7 mph - N/A   Overcast
7:15 AM 33.8 °F 23.5 °F 24.8 °F 70% 30.01 in 10.0 mi West 16.1 mph 20.7 mph N/A   Overcast
8:16 AM 32.0 °F 22.1 °F 24.8 °F 75% 30.03 in 10.0 mi West 13.8 mph - N/A   Overcast
9:51 AM 32.0 °F 23.6 °F 24.8 °F 75% 30.04 in 10.0 mi West 10.4 mph - N/A   Overcast
10:11 AM 33.8 °F 25.8 °F 24.8 °F 70% 30.05 in 10.0 mi West 10.4 mph 16.1 mph N/A   Overcast
10:31 AM 33.8 °F 26.4 °F 24.8 °F 70% 30.05 in 10.0 mi West 9.2 mph - N/A   Overcast
10:51 AM 33.8 °F 27.7 °F 26.6 °F 75% 30.03 in 10.0 mi WSW 6.9 mph - N/A   Overcast
11:12 AM 33.8 °F 25.8 °F 26.6 °F 75% 30.04 in 10.0 mi WSW 10.4 mph - N/A   Overcast
11:32 AM 33.8 °F 28.6 °F 24.8 °F 70% 30.03 in 10.0 mi West 5.8 mph 10.4 mph N/A   Overcast
11:52 AM 33.8 °F 25.8 °F 24.8 °F 70% 30.03 in 10.0 mi WSW 10.4 mph - N/A   Overcast
12:12 PM 33.8 °F 25.8 °F 26.6 °F 75% 30.04 in 10.0 mi WSW 10.4 mph - N/A   Overcast
2:33 PM 35.6 °F 27.5 °F 24.8 °F 65% 29.95 in 10.0 mi West 11.5 mph - N/A   Overcast
3:33 PM 33.8 °F 25.3 °F 26.6 °F 75% 29.96 in 10.0 mi WSW 11.5 mph - N/A   Overcast
4:13 PM 35.6 °F 28.0 °F 24.8 °F 65% 29.97 in 10.0 mi WSW 10.4 mph - N/A   Overcast
4:33 PM 35.6 °F 27.5 °F 26.6 °F 70% 29.96 in 10.0 mi WSW 11.5 mph - N/A   Overcast
4:53 PM 35.6 °F 28.0 °F 26.6 °F 70% 29.97 in 10.0 mi WSW 10.4 mph - N/A   Overcast
5:13 PM 35.6 °F 27.5 °F 26.6 °F 70% 29.97 in 10.0 mi SW 11.5 mph 17.3 mph N/A   Overcast
5:34 PM 35.6 °F 29.2 °F 26.6 °F 70% 29.96 in 10.0 mi WSW 8.1 mph - N/A   Overcast
5:54 PM 35.6 °F 28.6 °F 26.6 °F 70% 29.96 in 10.0 mi SW 9.2 mph - N/A   Overcast
6:14 PM 33.8 °F 27.7 °F 26.6 °F 75% 29.96 in 10.0 mi WSW 6.9 mph - N/A   Overcast
6:34 PM 33.8 °F 30.8 °F 28.4 °F 81% 29.96 in 10.0 mi SW 3.5 mph - N/A   Overcast
6:54 PM 33.8 °F - 28.4 °F 81% 29.95 in 10.0 mi Calm Calm - N/A   Overcast
7:14 PM 33.8 °F - 28.4 °F 81% 29.95 in 10.0 mi Calm Calm - N/A   Overcast
7:34 PM 33.8 °F 28.6 °F 26.6 °F 75% 29.95 in 10.0 mi WNW 5.8 mph - N/A   Overcast
7:54 PM 33.8 °F 27.7 °F 26.6 °F 75% 29.95 in 10.0 mi WNW 6.9 mph - N/A   Overcast
8:14 PM 33.8 °F 28.6 °F 24.8 °F 70% 29.94 in 10.0 mi WNW 5.8 mph - N/A   Overcast
8:34 PM 33.8 °F 28.6 °F 24.8 °F 70% 29.94 in 10.0 mi WNW 5.8 mph - N/A   Overcast
8:55 PM 33.8 °F 29.6 °F 26.6 °F 75% 29.93 in 10.0 mi WNW 4.6 mph - N/A   Overcast
9:15 PM 33.8 °F 30.8 °F 26.6 °F 75% 29.93 in 10.0 mi NW 3.5 mph - N/A   Overcast
9:35 PM 32.0 °F 28.7 °F 26.6 °F 80% 29.92 in 10.0 mi NW 3.5 mph - N/A   Overcast
9:55 PM 32.0 °F 26.4 °F 24.8 °F 75% 29.92 in 10.0 mi WNW 5.8 mph - N/A   Overcast
10:15 PM 30.2 °F 25.4 °F 24.8 °F 80% 29.92 in 10.0 mi WNW 4.6 mph - N/A   Overcast
10:35 PM 30.2 °F 26.7 °F 24.8 °F 80% 29.92 in 10.0 mi WNW 3.5 mph - N/A   Overcast
10:55 PM 30.2 °F 25.4 °F 26.6 °F 86% 29.91 in 10.0 mi WNW 4.6 mph - N/A   Overcast
11:15 PM 30.2 °F 24.3 °F 24.8 °F 80% 29.91 in 10.0 mi WNW 5.8 mph - N/A   Overcast
11:35 PM 30.2 °F 21.3 °F 24.8 °F 80% 29.91 in 10.0 mi WNW 10.4 mph - N/A   Overcast
11:55 PM 30.2 °F 24.3 °F 24.8 °F 80% 29.91 in 10.0 mi WNW 5.8 mph - N/A   Overcast